TITAN 3C TRANSTAGE DEB, 19595

Orbit data source: Space-Track

TITAN 3C TRANSTAGE DEB, 19595 is space debris in HEO originally from a launch on Tue, 21 Dec 1965 UTC launched from the Air Force Eastern Test Range (AFETR). Debris objects in space refer to the collection of defunct objects orbiting the Earth. Examples of debris include non-operational satellites, rocket bodies, and fragments generated from explosions, collisions, or faulty payload assembly.

Loading next visibility...
Identifier
19595, 1965-108AB
Orbit
HEO
Country
Flag of USUS
Related business
Manufacturer
Unknown
Mission
Spacecraft
Bus & Motor
Unknown
Mass
Unknown
Launch date (UTC)
1965-12-21 (60 years ago)
Launch vehicle
Unknown
Launch site
Air Force Eastern Test Range (AFETR)
Object type
Payload
Rocket body
Debris
Shape & HBR
Unknown
Radar Cross Section
Small (<0.1 m²)

Expand to show TLE details & history
Last TLE update: 2 days ago

TLE from 2 days ago
0 TITAN 3C TRANSTAGE DEB
1 19595U 65108AB  25240.74877189  .00006716  00000-0  48802-2 0  9997
2 19595  27.0379   3.7369 5972572 185.3765 163.1130  4.00292037185274
Epoch: 2025-08-28T17:58Z
TLE epoch observation values (Epoch: 2025-08-28T17:58:13.891Z)
Latitude
-0°
Longitude
116.96984°
Altitude
20,216.537 km
Speed
2.488 km/s
True Right ascension
00h 14m 56s
True Declination
0° 00' 00"
Sunlit
Object was in daylight at epoch
Visualization orbit readout
Latitude
Unknown
Longitude
Unknown
Altitude
Unknown
Speed
Unknown
Apparent Right ascension
Unknown
Apparent Declination
Unknown
Sunlit
N/A
Visualization observer readout
Local Sidereal Time
15:57:41
Azimuth
Unknown
Elevation
Unknown
Doppler factor
Unknown
Orbital elements
Apogee altitude
20,389.916 km
Perigee altitude
371.334 km
Semi-major axis
16,758.762 km
Eccentricity
0.59726
Inclination
27.0379°
RAAN
3.7369°
Arg. of periapsis
185.3765°
True anomaly
174.66843°
Mean anomaly
163.113°
Eccentric anomaly
169.40496°
Mean motion
1.00042 °/min
Orbital period
359.85 mins
BSTAR
0.0048802
Loading maneuver chart data...
Computing Atmospheric mass density...

Documentation

Showing up to 5 results
|